アトラス彗星

P/2022 L3 ( ATLAS )

English version
Home page
Updated on January 29, 2023

---------------------------------------------------------------------

・ プロフィール

発見日 2022年6月12日
発見光度 17.6等
発見者 Asteroid Terrestrial-Impact Last Alert System (ATLAS) search program

・ 写真集

・ 軌道要素

Epoch 2023 Feb. 25.0 TT = JDT 2460000.5
T 2022 Oct. 29.95198 TT                                 Rudenko
q   2.4198643            (2000.0)            P               Q
n   0.05943774     Peri.   10.32693     +0.77078131     -0.61039538
a   6.5027118      Node    29.80551     +0.55521506     +0.50305402
e   0.6278684      Incl.   21.54314     +0.31246185     +0.61184486
P  16.6
>From 958 observations 2022 June 12-Dec. 29, mean residual 0".6.

・ 星図

・ 光度変化

        m1 = 10.5 + 5 logΔ + 10.0 log r

---------------------------------------------------------------------

軌道要素はM.P.E.C. 2022-Y232に掲載されたものです。
星図はステラナビゲータ Ver.10 (アストロアーツ) で作成したものです。
光度グラフはComet for Windowsで作成したものです。

---------------------------------------------------------------------

Copyright(C) Seiichi Yoshida (comet@aerith.net). All rights reserved.